Domov               UVHVVR             MKGP            O straneh              
ZDRAVSTVENO VARSTVO RASTLIN
  MREŽA AGROMET. POSTAJ
 ► PROGNOSTIČNA OBVESTILA
AGROMETEOROLOŠKI PODATKI -
ARSO
OBVLADOVANJE TVEGANJ ZARADI
NEUGODNIH VREMENSKIH RAZMER
  ► NARAVNE NESREČE
  ► SUŠA/MOČA
  ► NAMAKANJE
  ► ŽLED (gozdarstvo)
KARTOGRAFSKI PRIKAZI
SPLETNE POVEZAVE
PROJEKTI IN PUBLIKACIJE

AGROMETEOROLOŠKA MREŽA: VREMENSKE POSTAJE IN FENOLOŠKA OPAZOVANJA

Pregled podatkov za lokacijo Šentilj, meteorološka postaja 24379

Pregled senzorjev na lokaciji

ID Ime Zadnja
vrednost
Datum
zadnje
spremembe
Tip
senzorja
904 Omočenost lista (U) 0 U 23.10.2017 11:00 A730WET
905 Temperatura 2 m ( °C) 8,62 °C 23.10.2017 11:00 Generic -40 - +60 °C
906 Relativna vlaga 2 m (% RH) 77,26 % RH 23.10.2017 10:59 Generic 0 - 100 %
3858 Padavine 0.2 mm (mm) 0 mm 23.10.2017 10:59 Generic 0.2 mm

Pregled podatkov zadnjih 24 ur

Zap.
št.
Datum in čas Šentilj
Omočenost
lista
Padavine
0.2
mm
Relativna
vlaga
2
m
Temperatura
2
m
0 23.10.2017 10:00 0 0 77,26 8,62
1 23.10.2017 09:30 0 0 82,86 8,06
2 23.10.2017 09:00 1 0 99,22 7,08
3 23.10.2017 08:30 1 0 99,39 6,54
4 23.10.2017 08:00 1 0 99,29 6,23
5 23.10.2017 07:30 1 0 98,9 6,03
6 23.10.2017 07:00 1 0 97 6,11
7 23.10.2017 06:30 1 0 98,78 6,01
8 23.10.2017 06:00 1 0 97,78 6,06
9 23.10.2017 05:30 1 0 94,63 6,3
10 23.10.2017 05:00 3 0 99,15 6,13
11 23.10.2017 04:30 5 0 99,9 6,06
12 23.10.2017 04:00 5 0 99,9 6,03
13 23.10.2017 03:30 5 0 99,78 6,15
14 23.10.2017 03:00 5 0 99,68 6,2
15 23.10.2017 02:30 7 0 99,44 6,2
16 23.10.2017 02:00 10 0 99 6,25
17 23.10.2017 01:30 9 0 97,51 6,28
18 23.10.2017 01:00 9 0 89,6 6,67
19 23.10.2017 00:30 8 0 92,99 6,45
20 23.10.2017 00:00 6 0 92,87 6,54
21 22.10.2017 23:30 5 0 91,82 6,54
22 22.10.2017 23:00 4 0 94,31 6,47
23 22.10.2017 22:30 4 0 95,38 6,52
24 22.10.2017 22:00 4 0 94,87 6,72
25 22.10.2017 21:30 4 0 94,9 6,94
26 22.10.2017 21:00 4 0 95,19 7,23
27 22.10.2017 20:30 6 0 95,87 7,45
28 22.10.2017 20:00 5 0 96,63 7,62
29 22.10.2017 19:30 4 0 97,31 7,81
30 22.10.2017 19:00 3 0 97,41 7,91
31 22.10.2017 18:30 4 0 97,39 7,99
32 22.10.2017 18:00 4 0 97,51 7,99
33 22.10.2017 17:30 5 0 97,8 8,11
34 22.10.2017 17:00 5 0 98,46 8,25
35 22.10.2017 16:30 5 0 98,29 8,47
36 22.10.2017 16:00 7 0 98,41 8,69
37 22.10.2017 15:30 6 0 98,17 8,94
38 22.10.2017 15:00 7 0 98,02 9,13
39 22.10.2017 14:30 7 0 98,12 9,18
40 22.10.2017 14:00 5 0 98,34 9,3
41 22.10.2017 13:30 7 0 98,17 9,26
42 22.10.2017 13:00 9 0 98,29 9,35
43 22.10.2017 12:30 7 0 99,54 10,28
44 22.10.2017 12:00 10 0 99,32 10,4
© 2011 Ministrstvo za kmetijstvo, gozdarstvo in prehrano. Vse pravice pridržane.